sat.trackr.live / text

‹ back to catalog

STARLINK-2081

NORAD 47366 · 2021-005T

PAYLOAD ACTIVE UNKNOWN

§ Identity

Operator
Country
US
Launch date
2021-01-20
Launch site
AFETR
Launch vehicle
Mass (kg)
RCS (m²)

Purposes: comms

External: N2YO · Heavens-Above · Gunter

§ Orbital elements

Epoch: 2026-05-25T01:41:22.153920Z

Period
94.01 min
Inclination
53.1603°
Eccentricity
0.0001219
Mean motion
15.31715952 rev/d
Perigee alt
469.9 km
Apogee alt
471.5 km
Semi-major
6,848.8 km
B*
1.6134e-4
RAAN
67.3470°
Arg perigee
91.8067°
Mean anomaly
268.3074°
Rev number
29,472

§ Raw data

STARLINK-20811 47366U 21005T   26145.07039530  .00004647  00000+0  16134-3 0  99972 47366  53.1603  67.3470 0001219  91.8067 268.3074 15.31715952294720

JSON: /api/v1/satellites/47366 · /tle

For live sub-satellite position, see the globe view (requires WebGL).

§ Visibility from observer

Set your observer location to see the next 7 days of passes ≥ 10°. The values pass through the URL so the page stays shareable.

No JS? Fill the form by hand. The geolocation button needs JavaScript.